Weather in Titovo

Russia / Tver Oblast     56°51′52″N   37°26′13″E
temp.,
°C
wind,
m/s
gust,
m/s
humid.,
%
clouds,
%
prec.,
mm/h
press.,
hPa
HPBL,
m
8 march, mon
mon800:00−10wsw388867 0.1 994200
03:00−9wsw399367 0.1 994420
06:00−8w2695100 0.7 994426
09:00−8nnw4890100 1.1 997523
12:00−7nw4785100 0.1 1000649
15:00−6nnw4782100 0.2 1003957
18:00−9nnw4888100 0.2 1006669
21:00−11nnw389492 0.2 1009400
9 march, tue
tue900:00−14nnw379595 0.1 1011268
03:00−16nnw379689 0.1 1013231
06:00−19nnw279773 0.0 1015199
09:00−18n359167 0.0 1017292
12:00−15nnw358389 0.0 1018505
15:00−13nnw358195 0.0 1019634
18:00−16n3690100 0.0 1020298
21:00−20n269851 0.0 1023139
10 march, wed
wed1000:00−22n269820 0.0 1024141
03:00−24n249829 0.0 102689
06:00−25n24983 0.0 1027111
09:00−23nne24921 0.0 1029214
12:00−17nne23730 0.0 1029420
15:00−14n22660 0.0 1029569
18:00−17n12850 0.0 102920
21:00−20nw11880 0.0 103020
11 march, thu
thu1100:00−20w12900 0.0 103020
03:00−20wnw12930 0.0 103120
06:00−21w129334 0.0 103120
09:00−17w128523 0.0 1032172
12:00−11wsw12730 0.0 1031470
15:00−9ssw23680 0.0 1030730
18:00−12sse23860 0.0 102921
21:00−15s38910 0.0 1029161
12 march, fri
fri1200:00−17s39890 0.0 1028236
03:00−18s411830 0.0 1027276
06:00−19sse411890 0.0 1024289
09:00−15sse5128823 0.0 1022362
12:00−10sse6147886 0.0 1019542
15:00−7sse7147692 0.0 1015909
18:00−8sse81685100 0.2 10121111
21:00−7sse81688100 0.6 10101187